Project,Study,Ord_Occ,Event_Num,Cast_ID,Date_Time_UTC,Date_Time_PST,Lat_Dec,Lon_Dec,Sta_ID,Line,Sta,Depth,Pressure,PrQ,Temp1,Temp1Q,Temp2,Temp2Q,TempAve,Salt1,Salt1Q,Salt1_Corr,Salt2,Salt2Q,Salt2_Corr,SaltAve_Corr,Ox1,Ox1Q,Ox1_CruiseCorr,Ox1_StaCorr,Ox2,Ox2Q,Ox2_CruiseCorr,Ox2_StaCorr,OxAve_StaCorr,Ox1uM,Ox1uM_CruiseCorr,Ox1uM_StaCorr,Ox2uM,Ox2uM_CruiseCorr,Ox2uM_StaCorr,OxAveuM_StaCorr,FluorV,FluorQ,EstChl_CruiseCorr,EstChl_StaCorr,ISUSV,ISUSQ,EstNO3_CruiseCorr,EstNO3_StaCorr,SigThetaTS1,SigThetaTS1Q,SigThetaTS2,SigThetaTS2Q,BAT,XMiss,TransQ,pH,pHQ,SPAR,SPARQ,PAR,PARQ,PoT1,PoT2,DynHt,SVA,OxSat1,OxSat2,BTL_Depth,BTL_Temp,SaltB,OxB,OxBuM,Chl-a,Phaeo,NO3,NO2,NH4,PO4,SIL
CalCOFI,2007SR,052,54,2007_052d,23-Jul-2020 07:12:39,22-Jul-2020 23:12:39,33.57840,-120.75482,083.3 060.0,083.3,060.0,2.000,2.014,,16.1509,,16.1508,,16.1509,33.4674,,33.4676,33.4680,,33.4696,33.4686,5.8800,,6.1263,6.1723,4.4804,,6.7549,5.0928,5.6326,256.314,267.0781,273.4688,195.305,461.3627,217.0068,245.2378,0.1525,,1.3705,1.0511,-99.0,,-99.0,-99.0,24.5348,,24.5353,,0.8448,80.9615,,8.189,,1.9043E+00,,8.2039E-01,,16.1506,16.1504,0.0043,,104.678,79.762,2,16.141,33.4631,6.102,266.40,0.916,0.162,0.15,0.034,0.08,0.21,0.50
CalCOFI,2007SR,052,54,2007_052d,23-Jul-2020 07:12:51,22-Jul-2020 23:12:51,33.57840,-120.75480,083.3 060.0,083.3,060.0,3.000,3.022,,16.1520,,16.1529,,16.1525,33.4674,,33.4676,33.4681,,33.4697,33.4687,5.8870,,6.1336,6.1796,4.4883,,6.7737,5.1107,5.6452,256.619,267.3965,273.7921,195.646,462.1086,217.7545,245.7733,0.1485,,1.3233,1.0405,-99.0,,-99.0,-99.0,24.5346,,24.5349,,0.8445,80.9677,,8.189,,1.9043E+00,,7.1232E-01,,16.1516,16.1524,0.0107,,104.805,79.905,,,,,,,,,,,,
CalCOFI,2007SR,052,54,2007_052d,23-Jul-2020 07:12:52,22-Jul-2020 23:12:52,33.57840,-120.75480,083.3 060.0,083.3,060.0,4.000,4.029,,16.1517,,16.1513,,16.1515,33.4671,,33.4673,33.4678,,33.4694,33.4684,5.8912,,6.1380,6.1839,4.4894,,6.7763,5.1132,5.6486,256.799,267.5844,273.9830,195.694,462.5489,217.8597,245.9214,0.1687,,1.5619,1.0790,-99.0,,-99.0,-99.0,24.5345,,24.5351,,0.8411,81.0369,,8.189,,1.9043E+00,,6.9933E-01,,16.1511,16.1507,0.0135,,104.877,79.922,,,,,,,,,,,,
CalCOFI,2007SR,052,54,2007_052d,23-Jul-2020 07:12:54,22-Jul-2020 23:12:54,33.57840,-120.75480,083.3 060.0,083.3,060.0,5.000,5.036,,16.1458,,16.1454,,16.1456,33.4673,,33.4675,33.4680,,33.4696,33.4686,5.8913,,6.1381,6.1841,4.4910,,6.7802,5.1168,5.6505,256.802,267.5875,273.9862,195.765,462.5562,218.0154,246.0008,0.1519,,1.3634,1.0496,-99.0,,-99.0,-99.0,24.5360,,24.5365,,0.8418,81.0217,,8.189,,1.9043E+00,,6.6595E-01,,16.1451,16.1447,0.0170,,104.867,79.942,,,,,,,,,,,,
CalCOFI,2007SR,052,54,2007_052d,23-Jul-2020 07:12:56,22-Jul-2020 23:12:56,33.57840,-120.75480,083.3 060.0,083.3,060.0,6.000,6.043,,16.1468,,16.1457,,16.1463,33.4674,,33.4676,33.4681,,33.4697,33.4687,5.8909,,6.1377,6.1836,4.4958,,6.7916,5.1277,5.6557,256.789,267.5739,273.9724,195.976,462.5244,218.4780,246.2252,0.1514,,1.3575,1.0483,-99.0,,-99.0,-99.0,24.5358,,24.5366,,0.8534,80.7895,,8.189,,1.9043E+00,,6.3417E-01,,16.1459,16.1448,0.0204,,104.863,80.028,,,,,,,,,,,,
CalCOFI,2007SR,052,54,2007_052d,23-Jul-2020 07:12:58,22-Jul-2020 23:12:58,33.57840,-120.75480,083.3 060.0,083.3,060.0,7.000,7.050,,16.1437,,16.1444,,16.1441,33.4674,,33.4676,33.4681,,33.4697,33.4687,5.8896,,6.1363,6.1823,4.4957,,6.7914,5.1275,5.6549,256.732,267.5144,273.9120,195.971,462.3850,218.4670,246.1895,0.1466,,1.3009,1.0350,-99.0,,-99.0,-99.0,24.5366,,24.5370,,0.8494,80.8689,,8.189,,1.9043E+00,,6.1277E-01,,16.1426,16.1433,0.0238,,104.834,80.024,,,,,,,,,,,,
CalCOFI,2007SR,052,54,2007_052d,23-Jul-2020 07:13:00,22-Jul-2020 23:13:00,33.57840,-120.75480,083.3 060.0,083.3,060.0,8.000,8.057,,16.1393,,16.1390,,16.1392,33.4671,,33.4673,33.4678,,33.4694,33.4684,5.8967,,6.1438,6.1897,4.5011,,6.8043,5.1397,5.6647,257.041,267.8370,274.2396,196.206,463.1408,218.9823,246.6110,0.1506,,1.3481,1.0462,-99.0,,-99.0,-99.0,24.5374,,24.5380,,0.8413,81.0330,,8.189,,1.9043E+00,,6.0186E-01,,16.1380,16.1378,0.0272,,104.951,80.112,,,,,,,,,,,,
CalCOFI,2007SR,052,54,2007_052d,23-Jul-2020 07:13:03,22-Jul-2020 23:13:03,33.57840,-120.75480,083.3 060.0,083.3,060.0,9.000,9.065,,16.1302,,16.1321,,16.1312,33.4669,,33.4671,33.4677,,33.4693,33.4682,5.8969,,6.1440,6.1899,4.5044,,6.8122,5.1472,5.6686,257.049,267.8454,274.2481,196.350,463.1604,219.2980,246.7731,0.1448,,1.2796,1.0294,-99.0,,-99.0,-99.0,24.5394,,24.5395,,0.8402,81.0559,,8.189,,1.9043E+00,,5.8703E-01,,16.1288,16.1307,0.0306,,104.936,80.160,,,,,,,,,,,,
CalCOFI,2007SR,052,54,2007_052d,23-Jul-2020 07:13:04,22-Jul-2020 23:13:04,33.57840,-120.75480,083.3 060.0,083.3,060.0,10.000,10.072,,16.1176,,16.1140,,16.1158,33.4666,,33.4668,33.4673,,33.4689,33.4679,5.9044,,6.1518,6.1977,4.5084,,6.8217,5.1563,5.6770,257.375,268.1857,274.5938,196.523,463.9577,219.6773,247.1356,0.1545,,1.3941,1.0558,-99.0,,-99.0,-99.0,24.5421,,24.5434,,0.8439,80.9804,,8.189,,1.9043E+00,,5.7198E-01,,16.1160,16.1125,0.0341,,105.043,80.202,10,16.130,33.4648,6.036,263.48,0.899,0.051,0.23,0.00,0.19,0.23,0.47
CalCOFI,2007SR,052,54,2007_052d,23-Jul-2020 07:13:06,22-Jul-2020 23:13:06,33.57840,-120.75480,083.3 060.0,083.3,060.0,11.000,11.079,,16.1043,,16.1051,,16.1047,33.4671,,33.4673,33.4680,,33.4696,33.4685,5.8961,,6.1431,6.1890,4.5112,,6.8284,5.1626,5.6758,257.011,267.8057,274.2078,196.645,463.0674,219.9448,247.0763,0.1561,,1.4130,1.0594,-99.0,,-99.0,-99.0,24.5455,,24.5460,,0.8438,80.9805,,8.189,,1.9043E+00,,5.6286E-01,,16.1026,16.1034,0.0374,,104.868,80.238,,,,,,,,,,,,
CalCOFI,2007SR,052,54,2007_052d,23-Jul-2020 07:13:09,22-Jul-2020 23:13:09,33.57840,-120.75480,083.3 060.0,083.3,060.0,12.000,12.086,,16.1035,,16.1040,,16.1038,33.4669,,33.4671,33.4678,,33.4694,33.4683,5.9010,,6.1483,6.1941,4.5149,,6.8372,5.1710,5.6826,257.226,268.0301,274.4358,196.805,463.5933,220.2956,247.3657,0.1458,,1.2914,1.0325,-99.0,,-99.0,-99.0,24.5455,,24.5461,,0.8449,80.9589,,8.189,,1.9043E+00,,5.4383E-01,,16.1016,16.1021,0.0409,,104.954,80.302,,,,,,,,,,,,
CalCOFI,2007SR,052,54,2007_052d,23-Jul-2020 07:13:10,22-Jul-2020 23:13:10,33.57840,-120.75480,083.3 060.0,083.3,060.0,13.000,13.093,,16.0674,,16.0680,,16.0677,33.4666,,33.4668,33.4672,,33.4688,33.4678,5.9058,,6.1533,6.1991,4.5210,,6.8518,5.1848,5.6920,257.431,268.2441,274.6531,197.067,464.0947,220.8701,247.7616,0.1559,,1.4107,1.0589,6.8179E-08,,0.0000,-99.0,24.5535,,24.5538,,0.8433,80.9925,,8.189,,1.9043E+00,,5.2897E-01,,16.0653,16.0659,0.0443,,104.964,80.352,,,,,,,,,,,,
CalCOFI,2007SR,052,54,2007_052d,23-Jul-2020 07:13:12,22-Jul-2020 23:13:12,33.57840,-120.75480,083.3 060.0,083.3,060.0,14.000,14.101,,16.0476,,16.0522,,16.0499,33.4673,,33.4675,33.4677,,33.4693,33.4684,5.9084,,6.1560,6.2018,4.5253,,6.8620,5.1945,5.6982,257.544,268.3621,274.7729,197.255,464.3711,221.2823,248.0276,0.1475,,1.3115,1.0376,2.0414E-09,,0.0000,-99.0,24.5586,,24.5578,,0.8504,80.8486,,8.189,,1.9043E+00,,5.1918E-01,,16.0454,16.0500,0.0477,,104.970,80.405,,,,,,,,,,,,
CalCOFI,2007SR,052,54,2007_052d,23-Jul-2020 07:13:15,22-Jul-2020 23:13:15,33.57840,-120.75480,083.3 060.0,083.3,060.0,15.000,15.108,,16.0019,,16.0089,,16.0054,33.4677,,33.4679,33.4677,,33.4693,33.4686,5.9089,,6.1565,6.2023,4.5328,,6.8800,5.2115,5.7069,257.564,268.3830,274.7942,197.583,464.4200,222.0014,248.3978,0.1576,,1.4308,1.0624,-99.0,,-99.0,-99.0,24.5692,,24.5676,,0.8472,80.9127,,8.189,,1.9043E+00,,5.0471E-01,,15.9996,16.0066,0.0511,,104.886,80.471,,,,,,,,,,,,
CalCOFI,2007SR,052,54,2007_052d,23-Jul-2020 07:13:17,22-Jul-2020 23:13:17,33.57841,-120.75480,083.3 060.0,083.3,060.0,16.000,16.115,,15.9759,,15.9792,,15.9776,33.4671,,33.4673,33.4681,,33.4697,33.4685,5.9105,,6.1582,6.2040,4.5397,,6.8964,5.2272,5.7156,257.631,268.4529,274.8652,197.878,464.5838,222.6482,248.7567,0.1845,,1.7488,1.0831,-99.0,,-99.0,-99.0,24.5747,,24.5747,,0.8533,80.7898,,8.189,,1.9043E+00,,4.9670E-01,,15.9734,15.9767,0.0544,,104.860,80.545,,,,,,,,,,,,
CalCOFI,2007SR,052,54,2007_052d,23-Jul-2020 07:13:19,22-Jul-2020 23:13:19,33.57840,-120.75480,083.3 060.0,083.3,060.0,17.000,17.122,,15.9503,,15.9532,,15.9518,33.4649,,33.4651,33.4663,,33.4679,33.4665,5.9277,,6.1762,6.2218,4.5440,,6.9067,5.2369,5.7294,258.381,269.2358,275.6605,198.066,466.4182,223.0604,249.3605,0.1917,,1.8339,1.0774,-99.0,,-99.0,-99.0,24.5789,,24.5792,,0.8576,80.7023,,8.189,,1.9043E+00,,4.8184E-01,,15.9476,15.9505,0.0578,,105.111,80.580,,,,,,,,,,,,
CalCOFI,2007SR,052,54,2007_052d,23-Jul-2020 07:13:21,22-Jul-2020 23:13:21,33.57840,-120.75480,083.3 060.0,083.3,060.0,18.000,18.129,,15.8638,,15.8769,,15.8704,33.4622,,33.4624,33.4644,,33.4660,33.4642,5.9360,,6.1848,6.2305,4.5547,,6.9322,5.2611,5.7458,258.736,269.6064,276.0369,198.531,467.2865,224.0799,250.0584,0.1932,,1.8517,1.0757,0.0001,,0.0000,-99.0,24.5963,,24.5951,,0.8626,80.6011,,8.190,,1.9043E+00,,4.7060E-01,,15.8610,15.8741,0.0612,,105.077,80.648,,,,,,,,,,,,
CalCOFI,2007SR,052,54,2007_052d,23-Jul-2020 07:13:23,22-Jul-2020 23:13:23,33.57841,-120.75480,083.3 060.0,083.3,060.0,19.000,19.137,,15.7852,,15.8034,,15.7943,33.4551,,33.4553,33.4580,,33.4596,33.4575,5.9510,,6.2005,6.2460,4.5656,,6.9583,5.2858,5.7659,259.387,270.2860,276.7271,199.002,468.8788,225.1126,250.9199,0.1909,,1.8245,1.0783,0.0001,,0.0000,-99.0,24.6085,,24.6066,,0.8787,80.2805,,8.190,,1.9043E+00,,4.6324E-01,,15.7822,15.8004,0.0645,,105.175,80.721,,,,,,,,,,,,
CalCOFI,2007SR,052,54,2007_052d,23-Jul-2020 07:13:25,22-Jul-2020 23:13:25,33.57840,-120.75480,083.3 060.0,083.3,060.0,20.000,20.144,,15.6857,,15.7132,,15.6995,33.4466,,33.4468,33.4488,,33.4504,33.4486,5.9444,,6.1936,6.2392,4.5754,,6.9817,5.3080,5.7736,259.098,269.9843,276.4207,199.426,468.1719,226.0423,251.2315,0.1802,,1.6979,1.0842,0.0001,,0.0000,-99.0,24.6243,,24.6198,,0.8529,80.7973,,8.191,,1.9043E+00,,4.4488E-01,,15.6826,15.7101,0.0679,,104.849,80.746,20,15.790,33.4629,6.186,270.04,1.339,0.104,0.20,0.00,0.12,0.22,0.57
CalCOFI,2007SR,052,54,2007_052d,23-Jul-2020 07:13:27,22-Jul-2020 23:13:27,33.57840,-120.75480,083.3 060.0,083.3,060.0,21.000,21.151,,15.6248,,15.6336,,15.6292,33.4369,,33.4371,33.4371,,33.4387,33.4379,5.9247,,6.1730,6.2187,4.5891,,7.0144,5.3391,5.7789,258.237,269.0855,275.5078,200.023,466.0660,227.3512,251.4295,0.1922,,1.8399,1.0769,0.0001,,0.0000,-99.0,24.6304,,24.6286,,0.8492,80.8729,,8.190,,1.9043E+00,,4.3240E-01,,15.6215,15.6304,0.0712,,104.369,80.855,,,,,,,,,,,,
CalCOFI,2007SR,052,54,2007_052d,23-Jul-2020 07:13:29,22-Jul-2020 23:13:29,33.57840,-120.75480,083.3 060.0,083.3,060.0,22.000,22.159,,15.5269,,15.5411,,15.5340,33.4158,,33.4160,33.4192,,33.4208,33.4184,5.9142,,6.1620,6.2078,4.6033,,7.0483,5.3712,5.7895,257.777,268.6053,275.0200,200.642,464.9409,228.7084,251.8642,0.1989,,1.9192,1.0670,0.0001,,0.0000,-99.0,24.6360,,24.6354,,0.8445,80.9674,,8.187,,1.9043E+00,,4.1871E-01,,15.5235,15.5377,0.0745,,103.969,80.949,,,,,,,,,,,,
CalCOFI,2007SR,052,54,2007_052d,23-Jul-2020 07:13:31,22-Jul-2020 23:13:31,33.57840,-120.75480,083.3 060.0,083.3,060.0,23.000,23.166,,15.4142,,15.4345,,15.4244,33.3989,,33.3991,33.4009,,33.4025,33.4008,5.8916,,6.1384,6.1844,4.6181,,7.0836,5.4048,5.7946,256.791,267.5760,273.9745,201.282,462.5293,230.1116,252.0431,0.1998,,1.9298,1.0654,0.0001,,0.0000,-99.0,24.6479,,24.6450,,0.8390,81.0786,,8.184,,1.9043E+00,,4.0868E-01,,15.4107,15.4310,0.0779,,103.331,81.028,,,,,,,,,,,,
CalCOFI,2007SR,052,54,2007_052d,23-Jul-2020 07:13:33,22-Jul-2020 23:13:33,33.57840,-120.75480,083.3 060.0,083.3,060.0,24.000,24.173,,15.2712,,15.3060,,15.2886,33.3691,,33.3693,33.3759,,33.3775,33.3734,5.8867,,6.1333,6.1793,4.6336,,7.1206,5.4399,5.8096,256.574,267.3495,273.7444,201.960,461.9986,231.5981,252.6713,0.1877,,1.7866,1.0812,0.0001,,0.0000,-99.0,24.6564,,24.6540,,0.8289,81.2834,,8.180,,1.9043E+00,,3.9394E-01,,15.2675,15.3023,0.0812,,102.934,81.082,,,,,,,,,,,,
CalCOFI,2007SR,052,54,2007_052d,23-Jul-2020 07:13:35,22-Jul-2020 23:13:35,33.57840,-120.75480,083.3 060.0,083.3,060.0,25.000,25.180,,15.0850,,15.1272,,15.1061,33.3432,,33.3434,33.3492,,33.3508,33.3471,5.7981,,6.0407,6.0873,4.6560,,7.1741,5.4906,5.7890,252.709,263.3148,269.6463,202.932,452.5453,233.7293,251.6878,0.1799,,1.6943,1.0843,0.0001,,0.0000,-99.0,24.6772,,24.6726,,0.8210,81.4445,,8.175,,1.9043E+00,,3.7969E-01,,15.0812,15.1234,0.0845,,100.995,81.172,,,,,,,,,,,,
CalCOFI,2007SR,052,54,2007_052d,23-Jul-2020 07:13:37,22-Jul-2020 23:13:37,33.57840,-120.75480,083.3 060.0,083.3,060.0,26.000,26.188,,14.8329,,14.9282,,14.8806,33.2952,,33.2954,33.3071,,33.3087,33.3021,5.6883,,5.9260,5.9733,4.7051,,7.2913,5.6019,5.7876,247.919,258.3145,264.5673,205.068,440.8297,238.4126,251.4900,0.1711,,1.5903,1.0811,0.0001,,0.0000,-99.0,24.6947,,24.6833,,0.8029,81.8135,,8.167,,1.9043E+00,,3.5815E-01,,14.8290,14.9243,0.0878,,98.554,81.681,,,,,,,,,,,,
CalCOFI,2007SR,052,54,2007_052d,23-Jul-2020 07:13:39,22-Jul-2020 23:13:39,33.57840,-120.75480,083.3 060.0,083.3,060.0,27.000,27.195,,14.0241,,14.0792,,14.0517,33.1976,,33.1978,33.1974,,33.1990,33.1984,5.8159,,6.0593,6.1058,4.7690,,7.4438,5.7466,5.9262,253.456,264.0946,270.4383,207.834,454.3724,244.4771,257.4577,0.1602,,1.4615,1.0673,0.0001,,0.0000,-99.0,24.7901,,24.7785,,0.7620,82.6537,,8.156,,1.9043E+00,,3.4475E-01,,14.0203,14.0753,0.0910,,99.076,81.332,,,,,,,,,,,,
CalCOFI,2007SR,052,54,2007_052d,23-Jul-2020 07:13:41,22-Jul-2020 23:13:41,33.57841,-120.75480,083.3 060.0,083.3,060.0,28.000,28.202,,13.7198,,13.7183,,13.7191,33.2241,,33.2243,33.2258,,33.2274,33.2259,5.8496,,6.0945,6.1408,4.7919,,7.4985,5.7985,5.9697,254.902,265.6041,271.9716,208.811,457.9091,246.6192,259.2954,0.1673,,1.5454,1.0775,0.0001,,0.0000,-99.0,24.8734,,24.8750,,0.7387,83.1376,,8.147,,1.9043E+00,,3.3177E-01,,13.7158,13.7144,0.0941,,99.052,81.140,,,,,,,,,,,,
CalCOFI,2007SR,052,54,2007_052d,23-Jul-2020 07:13:43,22-Jul-2020 23:13:43,33.57840,-120.75480,083.3 060.0,083.3,060.0,29.000,29.209,,13.7304,,13.7728,,13.7516,33.2352,,33.2354,33.2410,,33.2426,33.2390,5.7967,,6.0393,6.0858,4.7834,,7.4782,5.7792,5.9325,252.594,263.1948,269.5243,208.442,452.2641,245.8102,257.6673,0.1727,,1.6092,1.0822,0.0002,,0.0000,-99.0,24.8799,,24.8756,,0.7379,83.1540,,8.137,,1.9043E+00,,3.2831E-01,,13.7263,13.7687,0.0972,,98.183,81.094,,,,,,,,,,,,
CalCOFI,2007SR,052,54,2007_052d,23-Jul-2020 07:13:46,22-Jul-2020 23:13:46,33.57840,-120.75480,083.3 060.0,083.3,060.0,30.000,30.217,,13.6948,,13.7190,,13.7069,33.2488,,33.2490,33.2449,,33.2465,33.2478,5.7079,,5.9465,5.9936,4.7817,,7.4742,5.7754,5.8845,248.721,259.1518,265.4177,208.364,442.7913,245.6391,255.5284,0.1545,,1.3941,1.0558,0.0002,,0.0000,-99.0,24.8976,,24.8896,,0.7299,83.3200,,8.128,,1.9043E+00,,3.1005E-01,,13.6906,13.7148,0.1003,,96.618,80.978,30,14.337,33.2521,,267.15,0.917,0.129,1.90,0.048,0.31,0.43,1.51
CalCOFI,2007SR,052,54,2007_052d,23-Jul-2020 07:13:47,22-Jul-2020 23:13:47,33.57840,-120.75480,083.3 060.0,083.3,060.0,31.000,31.224,,13.4882,,13.4925,,13.4904,33.2794,,33.2796,33.2799,,33.2815,33.2806,5.7236,,5.9629,6.0099,4.7990,,7.5155,5.8146,5.9123,249.391,259.8512,266.1281,209.102,444.4300,247.2572,256.6927,0.1481,,1.3186,1.0394,0.0002,,0.0000,-99.0,24.9633,,24.9629,,0.7168,83.5943,,8.123,,1.9043E+00,,2.8977E-01,,13.4839,13.4882,0.1033,,96.494,80.913,,,,,,,,,,,,
CalCOFI,2007SR,052,54,2007_052d,23-Jul-2020 07:13:49,22-Jul-2020 23:13:49,33.57840,-120.75480,083.3 060.0,083.3,060.0,32.000,32.231,,13.4242,,13.4453,,13.4348,33.2794,,33.2796,33.2811,,33.2827,33.2812,5.6722,,5.9092,5.9566,4.7974,,7.5116,5.8109,5.8838,247.147,257.5087,263.7487,209.031,438.9415,247.1016,255.4252,0.1340,,1.1521,0.9899,0.0002,,0.0000,-99.0,24.9763,,24.9734,,0.7196,83.5353,,8.118,,1.9043E+00,,2.6741E-01,,13.4198,13.4409,0.1063,,95.502,80.809,,,,,,,,,,,,
CalCOFI,2007SR,052,54,2007_052d,23-Jul-2020 07:13:51,22-Jul-2020 23:13:51,33.57840,-120.75480,083.3 060.0,083.3,060.0,33.000,33.239,,13.3833,,13.3939,,13.3886,33.2987,,33.2989,33.2958,,33.2974,33.2982,5.6111,,5.8453,5.8931,4.7969,,7.5104,5.8098,5.8515,244.479,254.7235,260.9198,209.004,432.4159,247.0424,253.9811,0.1931,,1.8505,1.0758,0.0001,,0.0000,-99.0,24.9995,,24.9951,,0.7269,83.3831,,8.111,,1.9043E+00,,2.3312E-01,,13.3788,13.3893,0.1093,,94.405,80.722,,,,,,,,,,,,
CalCOFI,2007SR,052,54,2007_052d,23-Jul-2020 07:13:53,22-Jul-2020 23:13:53,33.57840,-120.75480,083.3 060.0,083.3,060.0,34.000,34.246,,13.2397,,13.2700,,13.2549,33.3029,,33.3031,33.3023,,33.3039,33.3035,5.5225,,5.7528,5.8012,4.8028,,7.5245,5.8232,5.8122,240.612,250.6868,256.8195,209.257,422.9578,247.5971,252.2083,0.2368,,2.3683,0.9342,0.0001,,0.0000,-99.0,25.0316,,25.0250,,0.7282,83.3568,,8.103,,1.9043E+00,,1.9530E-01,,13.2350,13.2653,0.1123,,92.645,80.620,,,,,,,,,,,,
CalCOFI,2007SR,052,54,2007_052d,23-Jul-2020 07:13:55,22-Jul-2020 23:13:55,33.57840,-120.75480,083.3 060.0,083.3,060.0,35.000,35.253,,13.1122,,13.1143,,13.1133,33.3194,,33.3196,33.3214,,33.3230,33.3213,5.3198,,5.5410,5.5907,4.8066,,7.5336,5.8318,5.7113,231.774,241.4608,247.4483,209.413,401.3413,247.9391,247.6937,0.2425,,2.4359,0.9029,0.0001,,0.0000,-99.0,25.0698,,25.0709,,0.7429,83.0502,,8.090,,1.9043E+00,,1.6340E-01,,13.1074,13.1095,0.1152,,89.020,80.436,,,,,,,,,,,,
CalCOFI,2007SR,052,54,2007_052d,23-Jul-2020 07:13:57,22-Jul-2020 23:13:57,33.57840,-120.75480,083.3 060.0,083.3,060.0,36.000,36.261,,12.9526,,12.9615,,12.9571,33.3773,,33.3775,33.3771,,33.3787,33.3781,5.2674,,5.4862,5.5363,4.8106,,7.5431,5.8409,5.6886,229.474,239.0598,245.0095,209.572,395.7158,248.2877,246.6486,0.1892,,1.8044,1.0799,1.7026E-07,,0.0000,-99.0,25.1462,,25.1444,,0.7330,83.2572,,8.081,,1.9043E+00,,1.4382E-01,,12.9477,12.9567,0.1181,,87.885,80.277,,,,,,,,,,,,
CalCOFI,2007SR,052,54,2007_052d,23-Jul-2020 07:13:59,22-Jul-2020 23:13:59,33.57840,-120.75480,083.3 060.0,083.3,060.0,37.000,37.268,,12.8322,,12.8486,,12.8404,33.3772,,33.3774,33.3808,,33.3824,33.3799,5.2506,,5.4687,5.5189,4.8083,,7.5377,5.8356,5.6773,228.736,238.2894,244.2270,209.466,393.9108,248.0553,246.1412,0.1705,,1.5832,1.0806,-99.0,,-99.0,-99.0,25.1699,,25.1695,,0.7200,83.5264,,8.073,,1.9043E+00,,1.2712E-01,,12.8272,12.8436,0.1209,,87.387,80.053,,,,,,,,,,,,
CalCOFI,2007SR,052,54,2007_052d,23-Jul-2020 07:14:01,22-Jul-2020 23:14:01,33.57840,-120.75480,083.3 060.0,083.3,060.0,38.000,38.275,,12.6367,,12.6666,,12.6517,33.3560,,33.3562,33.3593,,33.3609,33.3586,5.1954,,5.4110,5.4616,4.8095,,7.5405,5.8384,5.6500,226.324,235.7715,241.6695,209.516,388.0114,248.1650,244.9173,0.1510,,1.3528,1.0473,-99.0,,-99.0,-99.0,25.1916,,25.1884,,0.7158,83.6151,,8.065,,1.9043E+00,,1.0536E-01,,12.6316,12.6615,0.1237,,86.105,79.762,,,,,,,,,,,,
CalCOFI,2007SR,052,54,2007_052d,23-Jul-2020 07:14:03,22-Jul-2020 23:14:03,33.57840,-120.75480,083.3 060.0,083.3,060.0,39.000,39.283,,12.5364,,12.5589,,12.5477,33.3608,,33.3610,33.3622,,33.3638,33.3624,5.1067,,5.3183,5.3695,4.8078,,7.5365,5.8345,5.6020,222.456,231.7337,237.5681,209.438,378.5508,247.9939,242.7810,0.1415,,1.2407,1.0185,-99.0,,-99.0,-99.0,25.2148,,25.2116,,0.7034,83.8743,,8.057,,1.9043E+00,,9.3838E-02,,12.5313,12.5538,0.1265,,84.462,79.557,,,,,,,,,,,,
CalCOFI,2007SR,052,54,2007_052d,23-Jul-2020 07:14:05,22-Jul-2020 23:14:05,33.57840,-120.75480,083.3 060.0,083.3,060.0,40.000,40.290,,12.3989,,12.4243,,12.4116,33.3492,,33.3494,33.3535,,33.3551,33.3523,4.9855,,5.1916,5.2436,4.8116,,7.5455,5.8431,5.5434,217.174,226.2198,231.9675,209.600,365.6318,248.3491,240.1583,0.1242,,1.0366,0.9449,-99.0,,-99.0,-99.0,25.2323,,25.2308,,0.7014,83.9161,,8.050,,1.9043E+00,,8.0179E-02,,12.3937,12.4190,0.1293,,82.217,79.393,40,12.636,33.3508,,239.86,1.012,0.353,6.38,0.141,1.02,0.77,4.42
CalCOFI,2007SR,052,54,2007_052d,23-Jul-2020 07:14:07,22-Jul-2020 23:14:07,33.57840,-120.75480,083.3 060.0,083.3,060.0,41.000,41.297,,12.0825,,12.1304,,12.1065,33.3433,,33.3435,33.3475,,33.3491,33.3463,4.9474,,5.1518,5.2041,4.8160,,7.5560,5.8531,5.5286,215.501,224.4734,230.1936,209.780,361.5399,248.7438,239.4687,0.1057,,0.8185,0.8360,-99.0,,-99.0,-99.0,25.2880,,25.2822,,0.6920,84.1137,,8.039,,1.9043E+00,,6.3706E-02,,12.0772,12.1251,0.1320,,81.046,78.975,,,,,,,,,,,,
CalCOFI,2007SR,052,54,2007_052d,23-Jul-2020 07:14:09,22-Jul-2020 23:14:09,33.57840,-120.75480,083.3 060.0,083.3,060.0,42.000,42.305,,11.9665,,11.9815,,11.9740,33.3690,,33.3692,33.3681,,33.3697,33.3695,4.8437,,5.0435,5.0964,4.7992,,7.5159,5.8150,5.4557,210.977,219.7508,225.3966,209.038,350.4748,247.1169,236.2568,0.1032,,0.7890,0.8188,-99.0,,-99.0,-99.0,25.3298,,25.3263,,0.6888,84.1803,,8.028,,1.9043E+00,,5.3533E-02,,11.9611,11.9761,0.1347,,79.167,78.464,,,,,,,,,,,,
CalCOFI,2007SR,052,54,2007_052d,23-Jul-2020 07:14:11,22-Jul-2020 23:14:11,33.57840,-120.75480,083.3 060.0,083.3,060.0,43.000,43.312,,11.9396,,11.9429,,11.9413,33.4074,,33.4076,33.4107,,33.4123,33.4100,4.7558,,4.9516,5.0052,4.7767,,7.4622,5.7641,5.3847,207.141,215.7464,221.3292,208.049,341.0925,244.9485,233.1389,0.1117,,0.8892,0.8747,-99.0,,-99.0,-99.0,25.3647,,25.3667,,0.6893,84.1704,,8.019,,1.9043E+00,,3.9450E-02,,11.9341,11.9374,0.1373,,77.706,78.053,,,,,,,,,,,,
CalCOFI,2007SR,052,54,2007_052d,23-Jul-2020 07:14:13,22-Jul-2020 23:14:13,33.57840,-120.75480,083.3 060.0,083.3,060.0,44.000,44.319,,12.0369,,12.0397,,12.0383,33.4559,,33.4561,33.4581,,33.4597,33.4579,4.7534,,4.9491,5.0027,4.7442,,7.3846,5.6904,5.3466,207.030,215.6305,221.2115,206.628,340.8210,241.8329,231.5222,0.0866,,0.5936,0.6907,-99.0,,-99.0,-99.0,25.3841,,25.3853,,0.6901,84.1545,,8.010,,1.9043E+00,,3.1454E-02,,12.0312,12.0340,0.1400,,77.848,77.703,,,,,,,,,,,,
CalCOFI,2007SR,052,54,2007_052d,23-Jul-2020 07:14:15,22-Jul-2020 23:14:15,33.57840,-120.75480,083.3 060.0,083.3,060.0,45.000,45.327,,12.0232,,12.0291,,12.0262,33.4530,,33.4532,33.4608,,33.4624,33.4578,4.6253,,4.8153,4.8697,4.7242,,7.3369,5.6451,5.2574,201.453,209.8087,215.2980,205.758,327.1805,239.9254,227.6117,0.0818,,0.5371,0.6490,2.4457E-07,,0.0000,-99.0,25.3844,,25.3893,,0.6939,84.0731,,8.002,,1.9043E+00,,1.4995E-02,,12.0175,12.0233,0.1426,,75.728,77.360,,,,,,,,,,,,
CalCOFI,2007SR,052,54,2007_052d,23-Jul-2020 07:14:18,22-Jul-2020 23:14:18,33.57840,-120.75480,083.3 060.0,083.3,060.0,46.000,46.334,,11.7291,,11.7235,,11.7263,33.4138,,33.4140,33.4116,,33.4132,33.4136,4.6004,,4.7893,4.8438,4.7236,,7.3355,5.6438,5.2438,200.364,208.6719,214.1434,205.728,324.5169,239.8596,227.0015,0.0876,,0.6054,0.6992,1.1368E-07,,0.0000,-99.0,25.4088,,25.4082,,0.6854,84.2516,,7.997,,1.9043E+00,,9.5082E-04,,11.7233,11.7177,0.1452,,74.837,76.830,,,,,,,,,,,,
CalCOFI,2007SR,052,54,2007_052d,23-Jul-2020 07:14:19,22-Jul-2020 23:14:19,33.57840,-120.75480,083.3 060.0,083.3,060.0,47.000,47.341,,11.5606,,11.5526,,11.5566,33.4044,,33.4046,33.4053,,33.4069,33.4058,4.5875,,4.7758,4.8304,4.7179,,7.3218,5.6309,5.2307,199.796,208.0789,213.5411,205.475,323.1277,239.3049,226.4230,0.0742,,0.4477,0.5786,1.3480E-10,,0.0000,-99.0,25.4327,,25.4349,,0.6849,84.2631,,7.991,,1.9043E+00,,1.6223E-06,,11.5547,11.5467,0.1478,,74.357,76.458,,,,,,,,,,,,
CalCOFI,2007SR,052,54,2007_052d,23-Jul-2020 07:14:20,22-Jul-2020 23:14:20,33.57840,-120.75480,083.3 060.0,083.3,060.0,48.000,48.349,,11.5624,,11.5651,,11.5638,33.4244,,33.4246,33.4279,,33.4295,33.4271,4.5849,,4.7731,4.8277,4.6941,,7.2650,5.5769,5.2023,199.681,207.9589,213.4192,204.435,322.8464,237.0247,225.2220,0.0776,,0.4877,0.6107,-99.0,,-99.0,-99.0,25.4480,,25.4502,,0.6834,84.2945,,7.986,,1.9043E+00,,1.0000E-12,,11.5564,11.5591,0.1503,,74.327,76.103,,,,,,,,,,,,
CalCOFI,2007SR,052,54,2007_052d,23-Jul-2020 07:14:23,22-Jul-2020 23:14:23,33.57840,-120.75480,083.3 060.0,083.3,060.0,49.000,49.356,,11.5804,,11.5914,,11.5859,33.4300,,33.4302,33.4283,,33.4299,33.4301,4.4771,,4.6604,4.7158,4.6620,,7.1884,5.5042,5.1100,194.983,203.0547,208.4377,203.041,311.3558,233.9683,221.2030,0.0741,,0.4465,0.5776,-99.0,,-99.0,-99.0,25.4490,,25.4458,,0.6815,84.3358,,7.977,,1.9043E+00,,1.0000E-12,,11.5743,11.5852,0.1529,,72.609,75.626,,,,,,,,,,,,